Location: Brunembert
(50.7122°N, 1.8935°E)
Time: 10:07:01
(UTC+00:00)

Cosmos 2219 Rocket - Pass Details

Date: 22 April 2021
Orbit: 826 x 848 km, 71.0° (Epoch: 05 May)

Event Time Altitude Azimuth Distance (km) Brightness Sun altitude
Rises 19:44:12 0° 325° (NW) 3,423 6.7 -7.2°
Reaches altitude 10° 19:46:50 10° 317° (NW) 2,483 6.1 -7.6°
Maximum altitude 19:51:56 35° 253° (WSW) 1,352 3.8 -8.3°
Drops below altitude 10° 19:56:59 10° 190° (S) 2,463 4.4 -9.0°
Sets 19:59:36 0° 182° (S) 3,391 5.0 -9.3°
